Location: Riverside Cemetery
(38.3047°N, 99.7773°W)
Time: 00:41:02
(UTC+00:00)

Daily predictions for brighter satellites

Satellite Brightness Start Highest point End
(mag) Time Altitude Azimuth Time Altitude Azimuth Time Altitude Azimuth
Tsikada Rocket 4.0 00:58:26 10° N 01:04:36 75° E 01:10:45 10° SSE
Cosmos 1898 Rocket 3.5 01:04:30 10° SSW 01:09:40 83° ESE 01:14:52 10° NNE
Cosmos 1975 2.9 01:06:12 10° S 01:10:13 61° E 01:14:16 10° NNE
CZ-4 R/B 1.4 01:08:19 10° SSE 01:12:31 74° ENE 01:16:44 10° N
Cosmos 1782 Rocket 3.7 01:10:31 10° S 01:14:48 54° E 01:19:08 10° NNE
Cosmos 1544 3.5 01:11:35 10° SSW 01:15:14 69° W 01:18:53 10° N
Cosmos 1908 Rocket 3.9 01:12:38 10° SSW 01:16:57 73° W 01:21:20 10° N
CSL-04 Rocket 3.9 01:12:43 10° SE 01:17:53 49° ENE 01:23:09 10° N
Cosmos 1603 3.9 01:13:19 10° NNW 01:18:52 54° ENE 01:24:20 10° SE
CZ-2C R/B 1.6 01:15:47 10° WSW 01:19:11 39° S 01:22:04 12° ESE
Cosmos 858 Rocket 4.4 01:17:23 10° SSW 01:22:36 77° ESE 01:27:49 10° NNE
Cosmos 372 Rocket 4.4 01:22:44 10° SSE 01:27:33 39° ESE 01:32:24 10° NE
NOSS 2-2 (C) 3.0 01:24:06 10° SSW 01:27:35 62° ESE 01:31:11 10° NE
Cosmos 807 4.1 01:25:32 10° S 01:28:28 68° E 01:31:51 10° NNE
Cosmos 1842 3.1 01:26:28 10° N 01:30:20 72° E 01:34:11 10° SSE
BREEZE-M DEB (TANK) 3.8 01:34:36 10° NW 01:37:29 32° NE 01:42:24 15° E
Cosmos 1937 Rocket 3.8 01:33:39 10° SSW 01:38:54 75° WNW 01:44:09 10° NNE
Cosmos 2112 Rocket 4.2 01:34:43 10° NNW 01:39:56 76° WSW 01:45:09 10° S
Cosmos 1975 Rocket 2.9 01:38:32 10° N 01:42:52 71° E 01:47:09 10° SSE
Cosmos 2084 Rocket 3.6 01:38:46 10° NNW 01:43:13 66° NE 01:46:48 16° SE
Cosmos 1680 Rocket 4.1 01:38:31 10° NNW 01:43:39 59° WSW 01:48:47 10° S
MOS 1 Rocket 3.0 01:39:23 10° NNE 01:43:48 69° E 01:48:04 10° S
Cosmos 1707 3.3 01:40:46 10° NNE 01:44:17 34° ENE 01:46:32 18° SE
SJ-6B 4.1 01:44:19 19° E 01:44:45 20° ENE 01:47:30 10° NNE
ISS -3.3 01:46:57 10° WSW 01:50:18 62° NW 01:53:14 13° NE
Cosmos 1072 Rocket 4.4 01:46:20 10° S 01:52:28 67° E 01:58:44 10° NNE
USA 234 3.4 01:47:31 10° NE 01:53:50 50° SE 02:00:08 10° SSW
Sich 1 Rocket 3.6 01:49:45 10° S 01:54:13 90° S 01:58:46 10° N
MINOTAUR IV R/B 4.5 01:51:39 10° NNW 01:56:10 77° ENE 01:59:47 15° SSE
Cosmos 2034 Rocket 4.2 01:52:45 10° SSE 01:58:48 48° E 02:04:52 10° NNE
Nadezhda 4 Rocket 4.4 01:54:10 10° N 01:59:50 38° ENE 02:03:08 22° SE
H-2A R/B 2.0 01:55:48 10° S 02:00:43 80° WSW 02:05:46 10° NNW
Cosmos 1437 3.7 01:57:52 10° NNW 02:00:44 44° W 02:03:35 10° S
In-Cosmos 22 4.2 01:59:41 10° N 02:04:50 49° ENE 02:07:58 23° SE
ARGOS 3.1 02:00:03 10° SSE 02:05:24 84° ENE 02:10:48 10° NNW
Cosmos 1174 4.3 02:02:03 10° SSW 02:06:34 65° ESE 02:12:20 10° NE
SL-08 RB Rocket 3.7 02:05:17 19° SSE 02:08:28 64° ENE 02:13:00 10° N
USA 102 4.4 02:07:51 31° SSE 02:10:28 85° WSW 02:15:58 10° NNW
CZ-2C R/B 2.7 02:07:42 10° NNE 02:13:14 64° E 02:18:46 10° S
Okean 2 Rocket 3.1 02:09:24 10° S 02:13:54 87° W 02:18:25 10° N
MOS 1 4.4 02:14:02 27° SE 02:17:04 57° ENE 02:22:39 10° N
Cosmos 1844 3.8 02:13:37 10° S 02:19:04 48° ESE 02:24:30 10° NE
BREEZE-M DEB (TANK) 3.3 02:18:07 10° NW 02:19:17 28° NNW 02:19:17 28° NNW
Cosmos 2263 Rocket 4.4 02:18:47 10° WSW 02:23:21 26° WNW 02:27:58 10° N
Cosmos 1300 Rocket 3.9 02:21:20 10° SSW 02:25:40 65° W 02:30:04 10° N
DELTA 2 R/B (1) 3.8 02:20:23 10° W 02:25:51 60° SSW 02:27:38 40° SE
USA 186 1.9 02:26:23 66° NW 02:26:23 66° NW 02:29:15 10° NNW
ATLAS 2AS CENTAUR R/B 3.5 02:22:07 10° S 02:33:18 21° ENE 02:35:58 10° NE
Cosmos 1844 Rocket 2.5 02:24:32 10° SSW 02:30:04 76° ESE 02:35:39 10° NNE
Ariane Rocket 2.9 02:30:49 31° SSE 02:33:19 88° WSW 02:38:26 10° NNW
Cosmos 2285 Rocket 3.9 02:31:14 10° S 02:37:22 61° ESE 02:43:36 10° NNE
ATLAS 5 CENTAUR R/B 3.9 02:34:12 10° NW 02:38:12 50° SW 02:51:54 10° SSE
IRS-1A Rocket 4.4 02:38:16 24° S 02:42:01 78° WSW 02:47:56 10° NNW
OBJECT-B 3.3 02:47:22 15° N 02:47:22 15° N 02:48:04 10° N
CENTAUR R/B 3.7 02:37:24 10° NNW 02:45:06 43° NE 02:47:17 37° E
SPOT 3 Rocket 3.8 02:46:18 51° NE 02:46:18 51° NE 02:50:48 10° N
Meteor 1-15 Rocket 4.1 02:40:18 10° S 02:45:53 87° E 02:51:36 10° N
Cosmos 1536 Rocket 3.6 02:42:29 10° N 02:46:57 79° W 02:47:10 76° SW
ATLAS 3B R/B 4.4 02:46:19 10° N 02:50:38 17° NE 02:51:46 16° NE
MetOp-A 4.1 02:49:16 47° S 02:50:50 80° WSW 02:56:14 10° NNW
USA 238 DEB 3.9 02:46:51 10° NNW 02:54:03 62° NE 02:55:26 54° E
USA 238 3.9 02:46:57 10° NNW 02:54:10 61° NE 02:55:31 53° E
CZ-2C R/B 3.3 02:55:14 10° W 02:56:26 19° WSW 02:56:26 19° WSW
Cosmos 1092 Rocket 3.8 02:52:31 10° N 02:58:41 71° E 02:58:55 70° E
Cosmos 1025 Rocket 4.3 02:55:24 10° NNW 02:59:30 40° W 03:00:46 32° SW
Exosat Rocket 3.7 02:54:09 10° SSW 03:00:12 76° WNW 03:05:15 10° NNE
Cosmos 1867 4.1 02:55:46 10° NW 03:01:04 53° WSW 03:02:04 46° SSW
Cosmos 2195 Rocket 4.4 02:55:28 10° N 03:01:28 65° ENE 03:01:28 65° ENE
Meteor 2-13 Rocket 4.3 02:58:49 10° N 03:05:01 82° E 03:05:20 79° SE
Cosmos 2026 Rocket 4.2 02:59:33 10° N 03:05:12 57° NE 03:05:12 57° NE
Milstar 3 Cent rocket 3.9 03:03:42 10° SW 03:06:06 19° SSW 03:06:06 19° SSW
Meteor 2-5 Rocket 4.1 03:16:02 10° N 03:20:32 59° N 03:20:32 59° N
NOSS 3-2 (A) 4.0 03:14:30 10° NW 03:22:20 86° WSW 03:23:35 68° SSE
Resurs 01 Rocket 3.5 03:27:09 26° NNW 03:27:09 26° NNW 03:29:06 10° NNW
ISS -0.3 03:25:49 10° NW 03:26:13 11° NW 03:26:13 11° NW
Cosmos 2082 Rocket 4.5 03:32:54 10° NNE 03:33:54 13° NNE 03:33:54 13° NNE
USA 234 4.1 03:30:34 10° NE 03:36:46 47° NW 03:42:58 10° WSW
NOSS 3-2 (C) 4.1 03:48:52 10° NW 03:55:59 75° WNW 03:55:59 75° WNW
ATLAS 2AS CENTAUR R/B 3.6 04:12:00 10° SW 04:20:13 54° NW 04:27:29 10° NNE
CENTAUR R/B 3.9 04:28:03 10° NW 04:34:28 47° W 04:34:28 47° W
ATLAS 3B R/B 4.2 04:35:39 10° NNW 04:39:00 31° NNW 04:39:00 31° NNW
Cosmos 1697 Rocket 3.9 09:19:34 37° NNE 09:19:34 37° NNE 09:22:54 10° NNE
Cosmos 1980 Rocket 3.2 09:22:31 42° E 09:22:31 42° E 09:26:58 10° NE
NOSS 3-3 (A) 4.5 09:45:00 44° SE 09:45:34 45° ESE 09:51:24 10° NE
NOSS 3-3 (C) 4.5 09:45:10 43° SE 09:45:42 44° ESE 09:51:28 10° NE
Lacrosse 5 3.0 09:48:47 36° N 09:48:47 36° N 09:52:09 10° NNE
USA 267 3.8 09:45:09 10° NE 09:51:13 42° NNW 09:51:38 42° NW
BREEZE-M DEB (TANK) 3.9 09:50:54 66° SW 09:52:03 81° SE 10:12:20 10° ENE
Cosmos 921 Rocket 4.4 09:55:09 33° E 09:55:09 33° E 09:58:48 10° NE
Cosmos 1821 Rocket 4.1 09:49:25 10° N 09:54:46 63° NW 09:54:46 63° NW
Cosmos 44 3.9 09:58:36 48° NE 09:58:36 48° NE 10:01:59 10° NE
Cosmos 2228 Rocket 3.9 10:01:20 47° E 10:01:25 48° E 10:05:39 10° NNE
ADEOS II 4.0 10:01:20 10° NNW 10:03:06 18° NNW 10:03:06 18° NNW
X-37B 3.3 10:10:31 18° NNE 10:10:31 18° NNE 10:11:51 10° NE
Cosmos 1934 Rocket 3.9 10:04:07 10° N 10:10:11 84° E 10:16:17 10° S
Cosmos 2278 3.8 10:15:56 57° WNW 10:15:56 57° WNW 10:21:32 10° NNE
IDEFIX/ARIANE 42P 2.9 10:13:07 10° N 10:17:40 50° NW 10:17:40 50° NW
ADEOS Rocket 4.5 10:14:29 10° SE 10:20:53 41° ENE 10:26:43 10° N
MSX 3.7 10:17:37 10° N 10:23:22 72° WNW 10:24:50 50° SW
USA 234 3.3 10:17:20 10° SE 10:23:51 78° NE 10:30:23 10° NW
Timation 1 Rocket 4.3 10:18:19 10° NNW 10:24:21 86° ENE 10:30:21 10° SSE
ARIANE 5 R/B 3.6 10:20:16 10° N 10:23:30 29° NW 10:23:30 29° NW
ERS-2 3.5 10:27:05 10° SE 10:30:30 39° ENE 10:33:56 10° N
Cosmos 1605 Rocket 4.1 10:27:10 10° N 10:33:37 83° E 10:40:01 10° S
Cosmos 1535 Rocket 4.4 10:28:11 10° NNW 10:34:30 66° W 10:40:49 10° S
SJ 16-02 2.4 10:33:22 10° N 10:37:37 46° ENE 10:41:50 10° SE
H-2A R/B 1.9 10:34:58 10° S 10:39:17 82° WSW 10:43:44 10° NNW
PSLV R/B 3.4 10:36:10 10° NNE 10:40:23 86° ESE 10:42:13 33° S
Cosmos 1763 Rocket 4.0 10:38:57 11° S 10:43:55 61° ESE 10:49:09 10° NNE
Cosmos 1812 2.6 10:47:58 53° SW 10:48:40 67° W 10:52:30 10° N
ASTEX 1 4.5 10:50:05 10° NNW 10:53:47 26° WNW 10:53:47 26° WNW
ERBS 2.4 10:54:41 52° WNW 10:54:52 53° NW 10:58:10 10° NNE
Cosmos 2360 Rocket 3.9 10:50:40 10° SSE 10:55:38 32° ESE 11:00:37 10° NE
CZ-2C R/B 2.4 10:52:29 10° N 10:57:36 71° WNW 11:02:26 12° SSW
SL-4 R/B 2.7 10:55:28 26° SSW 10:57:55 59° SE 11:02:36 10° ENE
Cosmos 1500 3.1 10:54:08 10° NNW 10:57:55 58° W 11:01:39 10° S
CZ-4B R/B 2.6 10:55:59 10° SE 10:58:55 41° ENE 11:01:56 10° N
Cosmos 1697 Rocket 4.4 11:01:19 15° WNW 11:01:56 15° NW 11:05:01 10° NNW
Cosmos 1727 Rocket 4.0 10:56:37 10° S 11:02:58 79° W 11:09:20 10° N
Cosmos 1666 3.0 11:00:01 10° N 11:03:49 66° E 11:07:34 10° SSE
PAYLOAD A 4.0 10:59:28 10° N 11:04:01 50° WNW 11:06:59 20° SW
Landsat 5 4.0 11:00:35 10° S 11:04:49 40° W 11:09:05 10° NNW
Cosmos 1980 Rocket 3.3 11:04:19 23° W 11:05:46 25° WNW 11:10:24 10° N
DEBRIS 3.2 11:04:09 20° NW 11:05:51 58° NE 11:11:48 10° ESE
Cosmos 468 Rocket 4.0 11:04:22 13° SSW 11:09:00 69° WNW 11:14:17 10° NNE
Cosmos 990 Rocket 4.2 11:04:36 10° NNW 11:09:48 73° ENE 11:15:00 10° SSE
Cosmos 2322 Rocket 2.2 11:05:21 10° SSW 11:11:01 86° ESE 11:16:44 10° NNE
Cosmos 44 Rocket 4.4 11:08:56 10° S 11:13:20 43° ESE 11:17:52 10° NE
Meteor 1-10 Rocket 4.4 11:08:05 10° SSW 11:13:37 51° WNW 11:19:19 10° N
FENGYUN 3A 4.0 11:08:33 10° NNE 11:13:55 67° ESE 11:19:17 10° S
Cosmos 540 Rocket 4.0 11:11:19 10° S 11:16:22 60° ESE 11:21:28 10° NNE
Cosmos 2263 Rocket 2.1 11:12:18 10° NNW 11:17:56 71° WSW 11:23:34 10° SSE
SL-16 R/B 2.2 11:13:21 10° SSW 11:18:56 66° WNW 11:24:36 10° NNE
SAR-Lupe-4 3.5 11:22:37 10° SSE 11:26:11 88° ENE 11:29:48 10° NNW
deb Chang Zheng 4 3.5 11:22:21 10° N 11:26:36 63° WNW 11:30:49 10° SSW
CZ-4B R/B 4.1 11:23:27 10° NNE 11:26:55 40° E 11:30:17 10° S
CZ-4B R/B 4.2 11:23:01 10° NNE 11:27:21 82° E 11:31:49 10° S
Cosmos 1459 Rocket 4.1 11:23:15 10° N 11:29:21 82° E 11:35:24 10° S
Cosmos 2227 4.3 11:24:39 10° NNW 11:30:06 51° WSW 11:35:30 10° S
Lacrosse 5 4.0 11:28:52 10° NW 11:31:22 14° NNW 11:33:52 10° N
Cosmos 1707 Rocket 3.9 11:28:58 10° SSW 11:33:03 42° W 11:37:11 10° N
Cosmos 921 Rocket 4.5 11:32:00 15° W 11:33:24 18° WNW 11:36:17 10° NNW
Cosmos 1743 4.2 11:33:29 10° N 11:37:06 41° E 11:40:42 10° SSE
SAR-Lupe-1 4.0 11:34:58 10° S 11:38:28 65° WSW 11:42:02 10° NNW
Cosmos 1898 Rocket 3.5 11:34:02 10° NNW 11:39:15 67° WSW 11:44:29 10° S
Intercosmos 25 3.7 11:35:24 10° S 11:40:22 75° E 11:43:52 10° NNE
Cosmos 1689 Rocket 2.5 11:38:53 10° SSE 11:41:48 67° ENE 11:44:45 10° N
Cosmos 2208 Rocket 4.1 11:39:06 10° SSW 11:44:22 88° ESE 11:49:37 10° NNE
Meteor 1-4 Rocket 4.1 11:43:45 12° WSW 11:45:28 16° WNW 11:47:41 10° NNW
X-37B 2.1 11:43:29 10° NW 11:46:23 31° NNE 11:49:17 10° E
Cosmos 2219 Rocket 4.3 11:42:25 10° SSE 11:47:18 31° ESE 11:52:13 10° NE
SKYMED 2 4.0 11:46:20 10° SSE 11:50:39 71° ENE 11:54:59 10° N
Cosmos 858 Rocket 4.4 11:46:33 10° NNW 11:51:44 73° WSW 11:56:54 10° S
Cosmos 1536 3.2 11:48:30 10° NNW 11:52:21 41° W 11:56:10 10° SSW
ADEOS 4.1 11:48:37 10° N 11:53:25 39° WNW 11:58:12 10° SW
Cosmos 1484 Rocket 3.5 11:51:09 10° N 11:54:49 36° WNW 11:58:29 10° SW
Cosmos 1733 Rocket 3.1 11:51:19 10° NNW 11:55:35 56° W 11:59:48 10° S
